Location: Meanaryar
(48.4161°N, 4.7315°W)
Time: 17:06:39
(UTC+00:00)

Resurs 01 Rocket - Pass Details

Date: 18 September 2020
Orbit: 633 x 645 km, 98.0° (Epoch: 29 October)

Event Time Altitude Azimuth Distance (km) Brightness Sun altitude
Exits shadow 20:56:48 74° 215° (SW) 677 1.6 -24.6°
Maximum altitude 20:57:05 78° 256° (WSW) 667 1.6 -24.7°
Drops below altitude 10° 21:01:34 10° 344° (NNW) 2,053 4.9 -25.3°
Sets 21:03:48 0° 346° (NNW) 2,967 5.8 -25.6°
